Wind_Speed
4 6 7 7 6 5 6 6 7 7 7 7 7 6 7 6 5 5 5 4 3 3 2 2 3 4 5 7 9 11 12 10 10 11 13 10 9 9 13 15 14 12 11 12 12
4 5 5 6 6 7 7 8 8 8 9 9 8 8 8 8 7 7 6 6 4 4 3 3 4 4 4 6 8 10 11 9 10 11 8 11 9 11 14 15 15 14 12 13 14
5 5 6 6 7 7 7 8 9 8 9 9 9 9 9 8 8 9 9 7 6 4 3 4 4 5 5 6 7 7 8 7 7 10 9 12 14 14 16 16 12 13 13 14 14
6 6 6 7 7 8 9 9 10 10 10 10 10 10 9 8 5 6 6 6 5 5 5 4 5 6 6 6 6 5 5 4 6 10 12 12 14 14 15 13 11 11 12 12 13
8 8 7 8 9 9 9 10 11 11 11 11 12 11 11 11 11 11 10 9 7 6 6 6 6 6 7 6 5 3 3 4 5 6 7 9 10 10 11 10 9 9 9 10 11
9 9 9 9 9 9 10 10 11 11 11 12 12 12 13 13 13 13 12 10 9 8 7 7 6 7 6 5 4 3 2 4 4 6 6 8 10 10 7 8 8 7 7 8 9
9 10 10 9 9 9 10 10 10 12 11 12 11 12 12 14 13 11 10 10 10 8 8 9 8 8 7 5 5 5 6 5 6 8 9 9 12 8 7 6 6 5 6 7 9
11 11 10 10 9 9 10 10 11 12 12 12 12 12 14 13 13 14 14 13 12 11 10 10 10 11 10 8 7 7 8 6 2 4 6 6 7 7 8 8 7 7 7 8 10
12 11 11 11 9 9 9 9 10 11 11 12 13 13 15 12 13 14 14 14 13 12 11 12 12 13 13 11 10 9 6 5 5 6 7 8 7 7 9 10 10 10 11 10 10
13 12 12 11 9 9 9 9 10 11 11 12 13 12 13 10 7 7 12 13 14 14 14 14 15 15 15 14 10 6 7 6 7 7 10 15 15 14 15 16 15 15 13 11 10
13 12 12 11 10 9 10 9 10 11 12 12 11 9 9 9 8 8 11 11 11 11 13 15 16 16 11 13 15 13 13 13 12 15 21 22 23 15 16 18 15 16 15 14 13
14 12 13 12 11 10 10 10 10 11 12 13 15 16 16 15 14 12 10 10 9 11 13 15 17 13 14 14 14 12 13 14 17 19 19 20 23 17 18 20 18 18 21 18 17
15 13 13 13 12 11 11 10 10 11 14 16 17 17 17 17 17 16 15 14 12 12 13 15 10 10 15 15 15 16 18 19 19 19 19 23 27 17 11 12 19 16 14 14 15
15 14 13 13 12 12 11 9 9 10 9 10 9 9 10 10 12 14 16 15 14 11 14 12 18 17 16 16 15 16 18 19 17 14 8 11 7 21 21 16 14 14 14 14 13
15 14 14 12 12 12 11 9 8 7 3 5 7 6 5 6 5 4 7 10 13 11 12 11 9 8 9 11 11 12 12 12 10 11 14 19 8 17 18 17 13 12 13 14 14
15 14 13 12 13 12 11 9 8 5 6 5 5 5 6 6 6 5 5 6 7 12 14 16 15 13 14 13 13 12 12 10 11 11 4 17 12 7 11 10 11 11 12 14 13
13 12 11 11 10 10 10 9 6 7 5 6 6 7 6 5 5 6 8 9 8 7 11 12 15 16 15 14 15 15 11 1 3 0 5 5 7 10 10 11 9 9 10 12 12
12 11 11 10 8 8 9 12 9 6 9 7 7 6 7 7 7 9 10 11 12 13 8 7 5 11 10 12 8 9 12 5 6 3 2 6 8 7 11 15 15 13 12 14 14
11 11 11 10 10 9 11 14 6 10 10 8 7 8 9 9 8 7 8 9 8 10 8 7 6 7 8 7 8 6 9 8 3 4 1 7 10 11 14 14 14 14 15 16 17
12 13 12 11 11 12 14 16 12 12 10 9 7 7 8 9 8 7 8 7 7 10 10 7 5 10 11 11 12 12 8 5 6 1 4 5 7 10 14 16 13 12 13 12 10
13 13 12 12 12 14 17 16 15 14 13 11 12 11 11 10 11 10 7 7 9 9 9 9 9 6 8 9 10 12 15 11 7 5 4 1 4 9 13 12 14 12 10 8 8
13 13 12 12 13 15 18 17 16 14 13 13 12 13 12 11 11 12 11 12 7 8 6 8 6 8 10 12 14 15 14 14 8 4 6 4 10 13 13 14 13 11 11 10 11
12 12 13 12 15 17 17 16 15 15 14 12 11 12 13 13 8 11 11 12 12 12 6 7 6 3 3 10 17 17 18 17 17 16 14 6 8 9 15 17 18 20 17 18 23
11 10 12 14 18 16 14 14 14 12 13 14 13 12 11 12 12 8 11 9 10 11 11 10 14 15 15 10 12 11 11 12 13 11 19 24 31 27 24 23 24 27 29 32 37
13 17 15 10 12 13 13 10 11 12 11 10 10 12 12 11 12 14 13 13 12 11 11 10 11 14 16 19 21 23 23 25 30 32 27 37 33 28 29 27 28 34 39 37 24
7 11 10 12 11 11 11 13 14 13 12 10 10 8 8 9 10 4 7 8 9 9 10 11 11 15 18 19 22 26 24 25 29 32 35 35 35 29 28 27 28 25 22 22 23
6 7 7 7 9 9 8 7 7 6 6 6 6 6 6 6 7 8 9 10 12 15 16 16 15 12 8 16 19 21 12 10 13 14 16 23 24 23 23 22 22 22 22 23 23
Wind_Direction
180 190 192 201 207 208 213 215 228 232 238 243 248 256 259 257 263 267 263 262 255 255 257 264 261 248 235 230 227 231 232 234 226 224 240 246 241 260 273 268 266 264 259 265 267
195 206 207 209 218 225 234 240 244 249 253 256 259 261 260 260 254 255 262 253 247 241 249 257 256 254 237 231 227 227 237 240 236 241 242 242 256 273 267 261 258 265 265 265 268
220 224 229 230 238 239 245 249 249 252 254 254 252 254 252 253 260 257 253 245 236 242 253 255 262 253 236 228 226 232 242 240 236 249 250 251 264 271 263 259 263 262 263 262 266
230 229 240 247 251 253 254 252 254 253 254 257 254 254 256 255 255 237 226 219 236 251 250 259 255 249 235 227 223 233 241 252 245 253 264 262 260 263 263 264 258 256 257 262 265
246 245 242 249 255 257 256 258 259 257 258 259 258 257 259 253 247 246 248 251 250 248 247 255 254 261 248 213 220 236 232 249 256 257 259 259 253 251 263 259 259 260 264 268 268
248 253 254 253 255 257 261 262 263 264 264 263 263 259 254 253 250 246 246 248 244 242 244 247 245 238 233 218 234 235 253 253 253 254 252 252 251 260 267 264 264 261 272 277 263
249 251 254 256 257 262 264 263 264 264 262 262 262 262 260 255 251 246 242 240 238 235 239 240 240 233 227 235 244 253 269 273 269 256 253 262 268 270 256 240 250 256 276 283 275
257 261 259 258 255 258 261 267 268 269 269 271 270 268 263 259 251 246 243 243 240 239 241 238 234 231 229 234 246 265 275 275 253 250 256 254 282 279 265 256 255 262 280 289 291
259 261 261 260 257 260 262 266 270 271 269 268 266 264 264 264 252 245 242 240 239 235 239 236 231 231 231 237 250 255 253 261 269 257 271 272 284 294 289 276 270 275 280 277 282
258 260 261 261 260 262 267 271 276 274 270 265 261 259 255 251 239 235 237 237 238 238 235 231 230 231 233 232 242 257 243 252 259 280 275 281 286 287 288 285 283 279 276 269 282
252 256 259 260 258 258 262 266 273 276 269 262 257 245 247 240 236 242 236 231 231 228 226 227 230 235 247 240 242 244 253 265 261 274 281 281 283 282 282 278 279 285 279 270 273
251 249 253 255 255 256 260 265 271 274 273 266 262 258 251 248 247 242 233 228 229 228 227 231 235 234 232 237 240 248 256 263 276 281 277 279 281 282 280 281 283 274 269 268 271
254 248 249 250 253 255 256 262 271 275 278 272 264 257 251 248 244 240 237 239 239 234 238 237 234 225 232 240 245 253 261 269 273 277 277 285 287 290 278 278 285 271 263 267 275
245 247 250 248 252 255 254 260 268 276 278 264 246 245 244 240 240 238 239 238 239 232 234 242 240 242 245 248 250 257 263 269 272 270 261 273 282 284 288 281 272 258 254 263 271
244 243 246 250 253 252 252 250 252 258 323 222 216 218 209 194 178 186 208 220 227 224 218 229 233 229 241 248 251 259 263 260 260 258 265 266 240 279 279 273 262 253 253 253 258
237 238 244 247 247 247 244 237 234 218 251 207 199 192 191 195 201 199 198 204 208 222 229 239 245 247 249 252 253 250 250 264 268 258 251 255 226 248 239 246 248 254 254 257 259
233 238 241 240 239 237 232 219 209 221 218 213 203 192 183 199 221 224 226 224 219 211 228 238 246 249 247 245 245 243 239 280 337 222 220 219 211 243 231 233 231 246 250 249 250
230 234 230 227 226 225 222 206 220 235 215 199 201 225 233 228 234 234 237 239 236 233 239 228 251 235 242 236 236 224 219 205 206 205 251 213 233 234 241 239 241 239 243 250 255
233 228 227 225 226 230 216 210 230 230 225 227 213 234 235 228 223 220 229 233 231 225 214 215 233 229 234 225 207 210 211 228 236 250 338 229 243 241 242 240 236 236 242 252 265
227 230 228 227 230 226 222 227 238 233 232 231 234 231 229 217 221 221 220 239 232 228 222 231 239 238 239 243 240 234 222 203 215 161 260 266 250 233 227 230 228 227 231 237 247
227 231 232 232 228 226 229 240 248 247 246 249 248 237 238 232 225 220 226 241 236 233 227 231 233 243 242 240 239 229 225 227 231 233 186 244 240 238 228 213 219 219 223 240 255
229 233 233 231 229 232 238 244 251 252 253 250 248 243 236 237 236 226 232 231 230 227 217 225 239 235 246 252 249 238 236 233 229 222 229 257 269 261 247 241 233 241 253 258 268
236 240 238 235 235 240 248 252 252 254 251 246 237 238 242 239 228 230 233 238 243 248 241 224 223 225 277 257 251 248 251 246 242 253 250 225 263 249 248 252 261 264 259 271 281
249 246 246 242 248 251 249 250 247 246 244 243 243 240 238 236 235 241 237 244 245 248 249 253 251 243 233 267 267 253 257 237 229 245 255 247 268 270 273 269 270 267 270 283 289
249 250 255 249 240 242 241 242 231 238 235 236 244 244 247 244 246 243 249 254 256 254 253 248 257 259 265 264 269 268 263 259 260 264 257 276 275 278 279 275 269 274 281 287 281
247 241 244 245 239 232 231 238 244 244 246 242 236 233 228 230 227 221 218 233 249 254 255 259 258 271 275 276 278 276 277 269 266 266 268 278 287 294 290 279 278 276 272 277 286
261 245 224 230 224 219 218 216 206 201 208 207 203 204 207 225 228 240 247 253 261 268 271 267 266 278 269 280 288 288 285 264 273 276 284 284 298 293 290 284 275 273 273 280 284
Height
3119 3120 3120 3121 3121 3122 3122 3123 3124 3125 3124 3125 3126 3126 3126 3126 3126 3126 3127 3127 3126 3125 3125 3126 3126 3126 3126 3126 3127 3128 3130 3129 3130 3130 3131 3132 3132 3133 3133 3132 3131 3132 3133 3133 3132
3118 3119 3119 3120 3120 3121 3122 3122 3122 3122 3123 3123 3123 3124 3124 3124 3124 3124 3125 3124 3124 3124 3124 3124 3125 3125 3125 3125 3126 3126 3126 3126 3128 3128 3129 3130 3130 3131 3131 3130 3130 3130 3131 3130 3130
3117 3117 3118 3118 3119 3120 3120 3120 3121 3120 3121 3121 3121 3122 3122 3122 3123 3122 3122 3122 3123 3122 3123 3123 3123 3124 3124 3124 3124 3124 3124 3124 3125 3126 3127 3127 3128 3129 3128 3128 3129 3129 3128 3128 3127
3116 3116 3117 3117 3117 3118 3118 3118 3118 3118 3119 3119 3119 3120 3120 3120 3122 3120 3120 3120 3121 3120 3122 3121 3121 3122 3122 3123 3123 3123 3123 3122 3124 3124 3124 3125 3125 3125 3125 3126 3126 3126 3126 3125 3125
3115 3115 3115 3115 3115 3116 3116 3116 3116 3115 3115 3116 3116 3116 3117 3118 3118 3118 3118 3118 3118 3119 3120 3120 3120 3120 3121 3121 3122 3121 3121 3120 3121 3122 3122 3123 3123 3123 3123 3123 3123 3123 3123 3123 3123
3113 3113 3113 3113 3113 3113 3113 3113 3113 3113 3112 3113 3113 3113 3114 3116 3115 3115 3116 3116 3115 3117 3118 3117 3118 3119 3119 3120 3121 3120 3119 3119 3120 3121 3120 3121 3121 3121 3121 3121 3121 3121 3121 3121 3121
3111 3112 3111 3111 3110 3110 3111 3111 3111 3111 3111 3111 3111 3111 3110 3113 3111 3112 3112 3113 3113 3114 3115 3115 3116 3118 3118 3118 3119 3118 3118 3117 3118 3119 3119 3119 3119 3118 3118 3118 3118 3119 3119 3119 3119
3108 3108 3108 3108 3108 3108 3108 3108 3108 3108 3107 3107 3107 3107 3107 3108 3107 3108 3109 3110 3110 3111 3112 3113 3114 3115 3116 3117 3117 3117 3116 3115 3116 3117 3118 3118 3117 3117 3117 3117 3117 3117 3117 3117 3117
3106 3106 3106 3106 3105 3105 3105 3105 3105 3105 3104 3104 3105 3105 3105 3103 3103 3104 3105 3106 3107 3108 3109 3110 3111 3112 3113 3114 3115 3115 3113 3114 3115 3115 3116 3116 3115 3114 3114 3115 3115 3114 3114 3114 3114
3103 3103 3103 3103 3102 3102 3102 3101 3101 3101 3101 3101 3101 3104 3101 3100 3100 3100 3102 3103 3104 3105 3106 3107 3108 3108 3110 3111 3112 3111 3111 3112 3112 3114 3113 3112 3112 3112 3111 3111 3111 3110 3111 3111 3112
3099 3099 3099 3100 3099 3099 3100 3099 3101 3100 3098 3098 3098 3097 3097 3098 3098 3098 3099 3100 3100 3102 3102 3103 3104 3104 3107 3108 3108 3109 3109 3110 3110 3110 3110 3109 3107 3109 3108 3106 3107 3107 3107 3108 3108
3095 3095 3096 3097 3096 3096 3097 3096 3096 3097 3095 3093 3093 3093 3093 3093 3094 3095 3097 3098 3097 3098 3098 3102 3100 3102 3103 3104 3105 3105 3105 3106 3106 3106 3107 3105 3102 3103 3103 3102 3102 3102 3102 3103 3103
3092 3092 3093 3093 3093 3093 3093 3093 3093 3092 3092 3089 3088 3088 3089 3090 3090 3092 3094 3093 3094 3095 3096 3098 3098 3098 3099 3100 3101 3102 3101 3102 3103 3102 3102 3101 3097 3098 3098 3099 3098 3097 3097 3098 3099
3087 3088 3089 3089 3091 3090 3090 3090 3090 3090 3089 3086 3084 3083 3084 3084 3086 3087 3088 3091 3091 3092 3093 3095 3094 3095 3096 3096 3098 3098 3098 3098 3098 3099 3100 3099 3095 3093 3092 3092 3092 3092 3092 3093 3094
3083 3084 3085 3085 3085 3086 3088 3087 3087 3088 3088 3084 3081 3081 3081 3083 3084 3084 3085 3085 3087 3089 3092 3092 3091 3091 3092 3092 3094 3095 3094 3094 3093 3095 3096 3094 3095 3088 3086 3086 3086 3087 3088 3089 3090
3079 3080 3080 3081 3082 3083 3083 3083 3085 3088 3081 3078 3078 3079 3080 3080 3081 3082 3083 3084 3085 3086 3087 3087 3088 3088 3088 3089 3090 3091 3092 3091 3090 3092 3093 3087 3088 3083 3082 3082 3082 3083 3084 3086 3087
3074 3075 3076 3077 3078 3078 3079 3081 3083 3080 3078 3077 3076 3076 3077 3078 3079 3079 3080 3081 3082 3083 3083 3084 3083 3083 3084 3085 3085 3087 3088 3089 3093 3093 3088 3083 3084 3078 3079 3079 3080 3079 3080 3082 3083
3070 3071 3073 3074 3074 3075 3076 3078 3077 3073 3073 3074 3074 3075 3075 3076 3077 3077 3077 3077 3078 3078 3080 3080 3081 3080 3080 3082 3082 3082 3084 3084 3093 3089 3083 3082 3077 3073 3074 3075 3076 3076 3076 3077 3078
3066 3068 3069 3070 3071 3072 3073 3073 3071 3070 3071 3071 3072 3072 3073 3073 3075 3074 3074 3074 3074 3075 3078 3076 3077 3077 3078 3079 3081 3079 3080 3082 3081 3082 3082 3075 3072 3071 3071 3072 3072 3072 3073 3073 3074
3063 3065 3066 3066 3067 3068 3069 3068 3068 3068 3068 3068 3069 3070 3069 3069 3071 3071 3071 3071 3071 3072 3073 3073 3075 3074 3075 3076 3077 3077 3079 3080 3079 3083 3083 3070 3068 3066 3066 3067 3069 3069 3070 3070 3071
3060 3061 3061 3062 3064 3064 3064 3064 3064 3064 3065 3066 3065 3065 3066 3066 3067 3068 3068 3068 3068 3069 3070 3071 3072 3073 3072 3072 3072 3074 3074 3076 3076 3075 3074 3076 3065 3064 3064 3066 3066 3067 3068 3069 3069
3056 3057 3057 3058 3061 3059 3059 3060 3061 3060 3061 3061 3061 3061 3062 3063 3063 3064 3064 3065 3065 3066 3067 3067 3068 3069 3069 3069 3069 3069 3070 3071 3072 3071 3070 3069 3062 3064 3063 3064 3065 3065 3065 3065 3065
3052 3053 3053 3054 3054 3054 3055 3056 3056 3056 3056 3056 3057 3057 3058 3059 3061 3060 3060 3062 3063 3063 3063 3064 3064 3065 3066 3067 3065 3065 3066 3067 3068 3067 3065 3068 3060 3060 3061 3061 3061 3061 3061 3061 3060
3049 3049 3049 3049 3050 3051 3051 3052 3052 3052 3052 3053 3053 3054 3055 3056 3057 3057 3057 3058 3059 3060 3060 3061 3060 3061 3060 3060 3061 3061 3062 3063 3064 3063 3058 3056 3056 3057 3058 3058 3058 3057 3055 3054 3054
3044 3045 3045 3045 3046 3046 3047 3048 3048 3049 3049 3050 3050 3051 3052 3053 3053 3054 3055 3055 3055 3055 3055 3057 3056 3055 3055 3055 3054 3054 3056 3057 3056 3056 3055 3050 3051 3056 3055 3053 3051 3050 3048 3047 3046
3041 3041 3041 3042 3043 3043 3044 3045 3045 3045 3047 3047 3047 3047 3048 3049 3050 3050 3051 3052 3052 3052 3052 3052 3051 3050 3051 3050 3048 3045 3047 3047 3047 3046 3045 3044 3043 3048 3046 3044 3042 3041 3039 3039 3038
3039 3039 3039 3039 3040 3041 3041 3042 3042 3043 3044 3044 3045 3046 3046 3047 3048 3048 3048 3048 3048 3048 3048 3048 3047 3047 3044 3044 3043 3039 3037 3037 3038 3040 3041 3040 3041 3039 3038 3037 3036 3035 3034 3033 3032